• En España
  • Lista de países
  • Para 7 días
  • Temperatura del agua
  • Mapa Satelital
  • El tiempo en el mapa
  • Informadores
  • user-avatar
    Iniciar sesión

    Tiempo cada hora Albany

    Hoy, 18 Agosto, Viernes

    Tiempo Temperatura Precipitaciones Viento Presión Humedad
    00:00 +9°C° 0 mm 6 mps 758 mmHg 85%
    01:00 +9°C° 0 mm 6 mps 758 mmHg 85%
    02:00 +9°C° 0 mm 7 mps 758 mmHg 83%
    03:00 +9°C° 0 mm 7 mps 758 mmHg 82%
    04:00 +9°C° 0 mm 7 mps 758 mmHg 81%
    05:00 +8°C° 0 mm 6 mps 758 mmHg 79%
    06:00 +9°C° 0 mm 6 mps 758 mmHg 77%
    07:00 +9°C° 0 mm 7 mps 758 mmHg 74%
    08:00 +9°C° 0 mm 7 mps 758 mmHg 69%
    09:00 +11°C° 0 mm 7 mps 758 mmHg 62%
    10:00 +14°C° 0 mm 7 mps 758 mmHg 55%
    11:00 +16°C° 0 mm 7 mps 758 mmHg 48%
    12:00 +17°C° 0 mm 7 mps 757 mmHg 48%
    13:00 +17°C° 0 mm 6 mps 757 mmHg 48%
    14:00 +19°C° 0 mm 5 mps 757 mmHg 49%
    15:00 +18°C° 0 mm 4 mps 757 mmHg 54%
    16:00 +18°C° 0 mm 4 mps 756 mmHg 59%
    17:00 +17°C° 0 mm 3 mps 756 mmHg 63%
    18:00 +15°C° 0,2 mm 2 mps 757 mmHg 68%
    19:00 +14°C° 0,2 mm 2 mps 757 mmHg 73%
    20:00 +12°C° 0 mm 2 mps 757 mmHg 79%
    21:00 +12°C° 0,1 mm 2 mps 757 mmHg 82%
    22:00 +10°C° 0,1 mm 2 mps 757 mmHg 86%
    23:00 +10°C° 0,1 mm 2 mps 757 mmHg 89%

    Mañana, 19 Agosto, Sábado

    Tiempo Temperatura Precipitaciones Viento Presión Humedad
    00:00 +10°C° 0,1 mm 2 mps 757 mmHg 90%
    01:00 +10°C° 0,1 mm 3 mps 756 mmHg 91%
    02:00 +10°C° 0,1 mm 3 mps 756 mmHg 92%
    03:00 +10°C° 0,3 mm 3 mps 756 mmHg 92%
    04:00 +8°C° 0,3 mm 4 mps 756 mmHg 91%
    05:00 +8°C° 0,3 mm 5 mps 756 mmHg 91%
    06:00 +8°C° 0,5 mm 4 mps 756 mmHg 92%
    07:00 +8°C° 0,5 mm 4 mps 756 mmHg 92%
    08:00 +8°C° 0,5 mm 4 mps 756 mmHg 93%
    09:00 +8°C° 0,8 mm 4 mps 756 mmHg 91%
    10:00 +10°C° 0,8 mm 4 mps 756 mmHg 90%
    11:00 +11°C° 0,8 mm 4 mps 756 mmHg 89%
    12:00 +12°C° 0,2 mm 4 mps 755 mmHg 83%
    13:00 +13°C° 0,2 mm 5 mps 755 mmHg 78%
    14:00 +14°C° 0,2 mm 5 mps 755 mmHg 73%
    15:00 +13°C° 0,1 mm 6 mps 755 mmHg 74%
    16:00 +13°C° 0,1 mm 6 mps 755 mmHg 76%
    17:00 +13°C° 0,1 mm 6 mps 755 mmHg 78%
    18:00 +13°C° 0,4 mm 6 mps 756 mmHg 82%
    19:00 +11°C° 0,4 mm 7 mps 756 mmHg 86%
    20:00 +11°C° 0,4 mm 7 mps 757 mmHg 91%
    21:00 +11°C° 0,6 mm 8 mps 757 mmHg 91%
    22:00 +11°C° 0,6 mm 8 mps 757 mmHg 91%
    23:00 +11°C° 0,6 mm 8 mps 758 mmHg 91%

    Pasado mañana, 20 Agosto, Domingo

    Tiempo Temperatura Precipitaciones Viento Presión Humedad
    00:00 +11°C° 0,4 mm 9 mps 758 mmHg 91%
    01:00 +11°C° 0,4 mm 9 mps 758 mmHg 90%
    02:00 +11°C° 0,4 mm 9 mps 759 mmHg 90%
    03:00 +11°C° 0,3 mm 8 mps 759 mmHg 90%
    04:00 +11°C° 0,3 mm 8 mps 760 mmHg 90%
    05:00 +11°C° 0,3 mm 8 mps 760 mmHg 89%
    06:00 +10°C° 0,1 mm 7 mps 760 mmHg 88%
    07:00 +10°C° 0,1 mm 7 mps 761 mmHg 88%
    08:00 +10°C° 0,1 mm 7 mps 762 mmHg 87%
    09:00 +11°C° 0,1 mm 6 mps 762 mmHg 82%
    10:00 +13°C° 0,1 mm 6 mps 762 mmHg 78%
    11:00 +13°C° 0,1 mm 5 mps 763 mmHg 73%
    12:00 +13°C° 0 mm 5 mps 762 mmHg 71%
    13:00 +14°C° 0 mm 5 mps 762 mmHg 69%
    14:00 +14°C° 0 mm 5 mps 762 mmHg 68%
    15:00 +14°C° 0,1 mm 5 mps 762 mmHg 70%
    16:00 +13°C° 0,1 mm 5 mps 762 mmHg 73%
    17:00 +13°C° 0,1 mm 5 mps 762 mmHg 76%
    18:00 +12°C° 0,1 mm 5 mps 762 mmHg 79%
    19:00 +12°C° 0,1 mm 4 mps 762 mmHg 81%
    20:00 +11°C° 0,1 mm 4 mps 762 mmHg 84%
    21:00 +10°C° 0,1 mm 5 mps 762 mmHg 85%
    22:00 +10°C° 0,1 mm 5 mps 762 mmHg 86%
    23:00 +9°C° 0,1 mm 5 mps 762 mmHg 87%

    21 Agosto, Lunes

    Tiempo Temperatura Precipitaciones Viento Presión Humedad
    00:00 +9°C° 0,1 mm 6 mps 761 mmHg 86%
    01:00 +9°C° 0,1 mm 6 mps 761 mmHg 85%
    02:00 +9°C° 0,1 mm 6 mps 761 mmHg 84%
    03:00 +8°C° 0,1 mm 6 mps 760 mmHg 85%
    04:00 +8°C° 0,1 mm 6 mps 760 mmHg 85%
    05:00 +8°C° 0,1 mm 6 mps 760 mmHg 86%
    06:00 +9°C° 0,1 mm 7 mps 760 mmHg 85%
    07:00 +9°C° 0,1 mm 7 mps 760 mmHg 83%
    08:00 +9°C° 0,1 mm 7 mps 761 mmHg 82%
    09:00 +10°C° 0,1 mm 7 mps 761 mmHg 79%
    10:00 +11°C° 0,1 mm 7 mps 761 mmHg 76%
    11:00 +12°C° 0,1 mm 7 mps 761 mmHg 73%
    12:00 +14°C° 0,1 mm 7 mps 760 mmHg 70%
    13:00 +15°C° 0,1 mm 7 mps 760 mmHg 68%
    14:00 +15°C° 0,1 mm 7 mps 759 mmHg 65%
    15:00 +15°C° 0,1 mm 7 mps 759 mmHg 67%
    16:00 +15°C° 0,1 mm 6 mps 760 mmHg 68%
    17:00 +14°C° 0,1 mm 6 mps 760 mmHg 70%
    18:00 +14°C° 0,2 mm 5 mps 760 mmHg 75%
    19:00 +13°C° 0,2 mm 5 mps 761 mmHg 79%
    20:00 +12°C° 0,2 mm 4 mps 761 mmHg 84%
    21:00 +11°C° 0,3 mm 4 mps 761 mmHg 86%
    22:00 +11°C° 0,3 mm 3 mps 762 mmHg 88%
    23:00 +12°C° 0,3 mm 2 mps 762 mmHg 90%

    22 Agosto, Martes

    Tiempo Temperatura Precipitaciones Viento Presión Humedad
    00:00 +12°C° 0,1 mm 2 mps 762 mmHg 90%
    01:00 +12°C° 0,1 mm 2 mps 762 mmHg 90%
    02:00 +12°C° 0,1 mm 2 mps 762 mmHg 90%
    03:00 +12°C° 0,1 mm 2 mps 762 mmHg 90%
    04:00 +12°C° 0 mm 2 mps 762 mmHg 90%
    05:00 +12°C° 0 mm 2 mps 762 mmHg 90%
    06:00 +12°C° 0,1 mm 2 mps 762 mmHg 89%
    07:00 +12°C° 0,1 mm 2 mps 763 mmHg 88%
    08:00 +12°C° 0,1 mm 2 mps 763 mmHg 86%
    09:00 +13°C° 0,1 mm 2 mps 763 mmHg 79%
    10:00 +13°C° 0,1 mm 3 mps 764 mmHg 72%
    11:00 +14°C° 0,1 mm 4 mps 764 mmHg 64%
    12:00 +14°C° 0 mm 4 mps 764 mmHg 64%
    13:00 +14°C° 0 mm 4 mps 763 mmHg 63%
    14:00 +13°C° 0 mm 4 mps 763 mmHg 63%
    15:00 +13°C° 0 mm 4 mps 763 mmHg 64%
    16:00 +13°C° 0 mm 4 mps 764 mmHg 65%
    17:00 +12°C° 0 mm 3 mps 764 mmHg 66%
    18:00 +11°C° 0 mm 3 mps 765 mmHg 70%
    19:00 +10°C° 0 mm 3 mps 765 mmHg 73%
    20:00 +9°C° 0 mm 2 mps 766 mmHg 77%
    21:00 +9°C° 0 mm 2 mps 766 mmHg 77%
    22:00 +9°C° 0 mm 2 mps 766 mmHg 78%
    23:00 +9°C° 0 mm 2 mps 766 mmHg 78%

    23 Agosto, Miércoles

    Tiempo Temperatura Precipitaciones Viento Presión Humedad
    00:00 +9°C° 0 mm 2 mps 766 mmHg 79%
    01:00 +8°C° 0 mm 2 mps 766 mmHg 80%
    02:00 +8°C° 0 mm 2 mps 766 mmHg 80%
    03:00 +8°C° 0 mm 2 mps 766 mmHg 83%
    04:00 +8°C° 0 mm 2 mps 766 mmHg 85%
    05:00 +7°C° 0 mm 2 mps 766 mmHg 87%
    06:00 +8°C° 0 mm 2 mps 766 mmHg 85%
    07:00 +8°C° 0 mm 2 mps 767 mmHg 84%
    08:00 +9°C° 0 mm 2 mps 767 mmHg 82%
    09:00 +12°C° 0 mm 2 mps 767 mmHg 74%
    10:00 +14°C° 0 mm 2 mps 767 mmHg 67%
    11:00 +16°C° 0 mm 2 mps 767 mmHg 59%
    12:00 +16°C° 0 mm 2 mps 767 mmHg 58%
    13:00 +16°C° 0 mm 2 mps 766 mmHg 57%
    14:00 +17°C° 0 mm 2 mps 766 mmHg 56%
    15:00 +16°C° 0 mm 2 mps 766 mmHg 61%
    16:00 +15°C° 0 mm 2 mps 766 mmHg 65%
    17:00 +13°C° 0 mm 3 mps 767 mmHg 70%
    18:00 +13°C° 0 mm 2 mps 767 mmHg 75%
    19:00 +12°C° 0 mm 2 mps 767 mmHg 80%
    20:00 +10°C° 0 mm 1 mps 768 mmHg 85%
    21:00 +10°C° 0 mm 1 mps 768 mmHg 86%
    22:00 +10°C° 0 mm 1 mps 768 mmHg 86%
    23:00 +10°C° 0 mm 1 mps 768 mmHg 87%
    Mostrar más